Regional Weather Roundup
Issued by NWS Newport/Morehead, NC

Home | Current Version | Previous Version | Text Only | Print | Product List | Glossary On
Versions: 1 2 3 4 5 6 7 8 9 10 11 12 13 14 15 16 17 18 19 20 21 22 23 24 25 26 27 28 29 30 31 32 33 34 35 36 37 38 39 40 41 42 43 44 45 46 47 48 49 50
000
ASUS42 KMHX 311825
RWRMHX
WEATHER ROUNDUP FOR EASTERN NORTH CAROLINA
NATIONAL WEATHER SERVICE NEWPORT/MOREHEAD CITY NC
200 PM EDT MON AUG 31 2015

NOTE: "FAIR" INDICATES FEW OR NO CLOUDS BELOW 12,000 FEET
WITH NO SIGNIFICANT WEATHER AND/OR OBSTRUCTIONS TO VISIBILITY

NCZ015>017-031-032-045>047-102-103-311900-
NORTH COAST

CITY           SKY/WX    TMP DP  RH WIND       PRES   REMARKS
EDENTON        DRIZZLE   73  70  91 CALM      30.12S
ELIZABETH CITY LGT RAIN  75  71  87 N3        30.11F
KITTY HAWK     DRIZZLE   80  68  68 CALM      30.11S
MANTEO         DRIZZLE   78  69  74 E5        30.12F

$$

NCZ045>047-081-094-103-104-311900-
CENTRAL COAST

CITY           SKY/WX    TMP DP  RH WIND       PRES   REMARKS
FRISCO         LGT RAIN  77  74  90 S6        30.13R
SWANQUARTER    NOT AVBL

$$

NCZ095-097-098-100-101-311900-
SOUTHERN COAST

CITY           SKY/WX    TMP DP  RH WIND       PRES   REMARKS
BEAUFORT       LGT RAIN  76  74  93 SE12      30.11R
CEDAR ISLAND   NOT AVBL
JACKSONVILLE   CLOUDY    78  74  87 E10       30.09F
PINEY ISLAND   RAIN     N/A N/A N/A SE13G20   30.11R
WILMINGTON     CLOUDY    79  74  84 NE5       30.07F


$$

NCZ011>013-027>030-043-044-078>080-089-090>093-098-311900-
COASTAL PLAIN

CITY           SKY/WX    TMP DP  RH WIND       PRES   REMARKS
AHOSKIE        CLOUDY    73  70  89 SE9       30.11S
CLINTON        CLOUDY    82  74  78 CALM      30.08S
ELIZABETHTOWN  CLOUDY    80  73  77 SE5       30.08S
GOLDSBORO      PTSUNNY   78  73  83 E8        30.07F
GREENVILLE     CLOUDY    73  72  94 E8        30.12F
HAVELOCK       RAIN      74  74 100 CALM      30.12S FOG
KENANSVILLE    CLOUDY    77  73  86 E3        30.10S
KINSTON        CLOUDY    75  72  88 E8        30.10F
NEW BERN       CLOUDY    77  74  90 E6        30.12F
RICHLANDS      CLOUDY    79  70  73 E9        30.09F
ROCKY MOUNT    CLOUDY    75  71  87 E5        30.11S
WASHINGTON     CLOUDY    73  71  92 E7        30.12F
WHITEVILLE     CLOUDY    76  73  90 CALM      30.08S

$$

AMZ130-135-150-152-154-156-158-170-250-252-270-ANZ085-086-088-633-658-670-311900-
MARINE OBSERVATIONS

STATION/POSITION TIME  TEMP    WIND        PRES    WAVE   SWELL
                       AIR SEA DIR/SP/G            HT/PER HT/PER
                 (UTC) (F)     (DEG/KT/KT) (MB)    (FT/S) (FT/S)
CHESAPEAKE LIGHT 1800   75     190/ 10/ 10 1019.5
64 E VA BEACH    1750   78 78  310/  8/ 12 1019.7    3/ 9   3/ 9
DUCK             1800   76 79   20/  6/  8 1019.0
2 E DUCK         1711      79                N/A     3/ 9
OREGON INLET     1800   79 80   70/  6/  7 1020.0
13E OREGON INLT  1800      80                N/A     3/10   2/11
HATTERAS CG      1800   78 80  150/ 11/ 14 1019.7
DIAMOND BUOY     1750   80 85  190/ 12/ 19 1020.4    3/ 9   3/ 9
CAPE LOOKOUT     1800   76     140/ 18/ 20 1018.8
BEAUFORT LAB     1800   76 79  150/ 11/ 15 1018.8
30 SE NEW RVR IN 1708   78 81  160/ 17/ 23 1019.5
30 SE NEW RVR IN 1725      81                N/A     5/ 8
27 SE WRIGHTSVLE 1800   77 82  180/ 14/ 16   N/A
5 SE WRIGHTSVLE  1708   78 82  330/ 10/ 14 1018.4
225 S CAPE HAT   1650   84 84  160/ 12/ 14 1020.0    3/ 7   3/ 7
41 SE CHARLESTON 1750   80 83  150/ 16/ 16 1017.3    5/ 9   3/ 9

$$


USA.gov is the U.S. government's official web portal to all federal, state and local government web resources and services.